EW3148 Weather Reports


time (UTC)temp
C
wind
direction
speed
KPH
gust
KPH
rain 1hr
cm
rain 24hr
cm
rain mn
cm
humidity
%
barometer
mb
20260508084403 16 26 0.0 0.0 0.00 0.00 0.00 81 1012.4
20260508083405 16 26 0.0 0.0 0.00 0.00 0.00 81 1012.6
20260508082345 16 26 0.0 0.0 0.00 0.00 0.00 80 1012.6
20260508081358 16 37 0.0 0.0 0.00 0.00 0.00 80 1012.8
20260508080409 16 37 0.0 0.0 0.00 0.00 0.00 80 1012.9
20260508075406 16 37 0.0 0.0 0.00 0.00 0.00 80 1012.9
20260508074337 16 37 0.0 0.0 0.00 0.00 0.00 80 1012.6
20260508073334 16 37 0.0 0.0 0.00 0.00 0.00 80 1012.9
20260508072318 16 91 0.0 4.8 0.00 0.00 0.00 79 1012.8
20260508071315 16 22 0.0 3.2 0.00 0.00 0.00 80 1012.8
20260508070337 16 49 0.0 4.8 0.00 0.00 0.00 80 1012.7
20260508065337 16 17 0.0 4.8 0.00 0.00 0.00 80 1012.7
20260508064351 16 53 0.0 3.2 0.00 0.00 0.00 81 1012.9
20260508063322 16 38 0.0 0.0 0.00 0.00 0.00 81 1013.5
20260508062305 16 38 0.0 1.6 0.00 0.00 0.00 80 1013.7
20260508061254 16 38 0.0 0.0 0.00 0.00 0.00 80 1013.6
20260508060317 16 46 0.0 0.0 0.00 0.00 0.00 80 1013.5
20260508055257 16 42 0.0 4.8 0.00 0.00 0.00 80 1013.3
20260508054230 16 45 0.0 3.2 0.00 0.00 0.00 80 1013.3
20260508053155 16 5 0.0 0.0 0.00 0.00 0.00 81 1013.7
20260508052148 16 24 0.0 0.0 0.00 0.00 0.00 80 1013.7
20260508051125 16 5 0.0 6.4 0.00 0.00 0.00 80 1013.6
20260508050149 16 317 0.0 6.4 0.00 0.00 0.00 80 1013.6
20260508045142 16 38 0.0 8.0 0.00 0.00 0.00 80 1013.5
20260508044151 16 37 1.6 8.0 0.00 0.00 0.00 79 1014.0
20260508043121 16 309 0.0 4.8 0.00 0.00 0.00 80 1014.0
20260508040951 16 34 0.0 4.8 0.00 0.00 0.00 79 1013.4
20260508035923 16 17 0.0 0.0 0.00 0.00 0.00 79 1013.7
20260508034901 16 17 0.0 0.0 0.00 0.00 0.00 78 1014.1
20260508033856 16 65 0.0 0.0 0.00 0.00 0.00 78 1013.9
20260508032910 16 20 0.0 1.6 0.00 0.00 0.00 77 1014.2
20260508030726 16 101 0.0 0.0 0.00 0.00 0.00 77 1014.6
20260508025705 16 101 0.0 0.0 0.00 0.00 0.00 76 1014.5
20260508024643 17 101 0.0 0.0 0.00 0.00 0.00 75 1013.9
20260508022433 17 102 0.0 0.0 0.00 0.00 0.00 72 1013.0
20260508021400 17 62 1.6 9.7 0.00 0.00 0.00 72 1012.1
20260508020346 17 98 0.0 6.4 0.00 0.00 0.00 71 1012.1
20260508015342 17 74 1.6 11.3 0.00 0.00 0.00 70 1012.2
20260508013218 17 61 3.2 11.3 0.00 0.00 0.00 69 1012.0
20260508012153 18 74 1.6 14.5 0.00 0.00 0.00 69 1012.5
20260508011126 18 40 1.6 14.5 0.00 0.00 0.00 69 1012.5
20260508010112 18 45 3.2 9.7 0.00 0.00 0.00 69 1012.8
20260508005056 18 346 3.2 14.5 0.00 0.00 0.00 68 1011.9
20260508004053 18 32 4.8 14.5 0.00 0.00 0.00 67 1012.3
20260508003034 19 65 1.6 4.8 0.00 0.00 0.00 68 1012.6
20260508002023 19 91 1.6 9.7 0.00 0.00 0.00 67 1012.8
20260508001009 19 88 1.6 9.7 0.00 0.00 0.00 65 1013.1
20260508000018 20 87 0.0 9.7 0.00 0.00 0.00 64 1013.0
20260507235031 20 63 1.6 11.3 0.00 0.00 0.00 63 1013.6
20260507234039 20 50 3.2 11.3 0.00 0.00 0.00 61 1013.8
20260507233038 21 74 3.2 11.3 0.00 0.00 0.00 60 1013.7
20260507232012 21 46 1.6 12.9 0.00 0.00 0.00 62 1013.7
20260507230943 20 34 3.2 12.9 0.00 0.00 0.00 62 1013.7
20260507225909 20 88 1.6 11.3 0.00 0.00 0.00 62 1013.6
20260507224932 20 64 3.2 12.9 0.00 0.00 0.00 61 1013.9
20260507223903 20 5 4.8 16.1 0.00 0.00 0.00 62 1014.2
20260507222921 20 355 4.8 16.1 0.00 0.00 0.00 65 1014.2
20260507221927 20 355 3.2 12.9 0.00 0.00 0.00 64 1014.2
20260507220910 20 342 3.2 14.5 0.00 0.00 0.00 64 1014.4
20260507215922 20 42 4.8 16.1 0.00 0.00 0.00 63 1014.6
20260507214854 20 46 4.8 19.3 0.00 0.00 0.00 64 1014.4
20260507213850 20 339 4.8 16.1 0.00 0.00 0.00 62 1014.3
20260507212825 20 21 4.8 14.5 0.00 0.00 0.00 62 1014.3
20260507210627 20 61 6.4 17.7 0.00 0.00 0.00 62 1014.2
20260507204539 19 11 9.7 27.4 0.00 0.00 0.00 65 1014.0
20260507203525 19 319 9.7 22.5 0.00 0.00 0.00 62 1014.2
20260507202519 20 14 8.0 24.1 0.00 0.00 0.00 63 1014.4
20260507201459 20 34 9.7 24.1 0.00 0.00 0.00 60 1015.2
20260507200512 20 62 8.0 24.1 0.00 0.00 0.00 63 1014.9
20260507195443 20 78 9.7 22.5 0.00 0.00 0.00 65 1015.0
20260507194447 20 22 8.0 20.9 0.00 0.00 0.00 64 1015.0
20260507193413 20 46 6.4 19.3 0.00 0.00 0.00 66 1015.3
20260507192352 20 5 6.4 19.3 0.00 0.00 0.00 67 1015.3
20260507191358 18 20 3.2 14.5 0.00 0.00 0.00 72 1015.6
20260507190405 18 42 4.8 14.5 0.00 0.00 0.00 73 1015.6
20260507185358 18 119 4.8 14.5 0.00 0.00 0.00 73 1015.7
20260507184400 18 68 4.8 14.5 0.00 0.00 0.00 71 1015.6
20260507183356 18 21 4.8 14.5 0.00 0.00 0.00 74 1016.1
20260507182331 18 66 6.4 17.7 0.00 0.00 0.00 72 1016.0
20260507181258 18 36 6.4 16.1 0.00 0.00 0.00 73 1016.2
20260507180319 18 51 4.8 12.9 0.00 0.00 0.00 74 1016.0
20260507175307 17 26 4.8 17.7 0.00 0.00 0.00 77 1015.9
20260507174245 17 52 4.8 17.7 0.00 0.00 0.00 78 1015.9
20260507173227 16 45 4.8 24.1 0.00 0.00 0.00 79 1015.6
20260507172221 16 86 6.4 24.1 0.00 0.00 0.00 79 1015.7
20260507171218 16 69 4.8 20.9 0.00 0.00 0.00 82 1016.0
20260507170153 16 87 4.8 19.3 0.00 0.00 0.00 84 1016.1
20260507165206 16 55 6.4 17.7 0.00 0.00 0.00 84 1016.2
20260507161837 15 338 9.7 25.7 0.00 0.00 0.00 86 1016.3
20260507160849 15 13 8.0 25.7 0.00 0.00 0.00 87 1016.3
20260507155840 15 11 8.0 19.3 0.00 0.00 0.00 87 1016.9
20260507154830 15 0 4.8 14.5 0.00 0.00 0.00 87 1016.5
20260507153839 15 349 6.4 16.1 0.00 0.00 0.00 87 1016.6
20260507152809 15 18 4.8 20.9 0.00 0.00 0.00 88 1016.6
20260507145536 15 5 6.4 20.9 0.00 0.00 0.00 88 1016.3
20260507144533 14 332 6.4 20.9 0.00 0.00 0.00 88 1016.6
20260507143536 14 307 6.4 17.7 0.00 0.00 0.00 89 1016.6
20260507142553 14 36 4.8 16.1 0.00 0.00 0.00 89 1016.8
20260507141558 14 344 4.8 25.7 0.00 0.00 0.00 89 1017.1
20260507140623 14 31 8.0 25.7 0.00 0.00 0.00 89 1016.7
20260507135608 14 319 6.4 17.7 0.00 0.00 0.00 89 1016.3
20260507134624 14 355 4.8 14.5 0.00 0.00 0.00 90 1016.5
20260507133605 14 12 6.4 19.3 0.00 0.00 0.00 90 1016.3
20260507132618 14 11 8.0 19.3 0.00 0.00 0.00 90 1016.1
20260507131552 14 76 6.4 24.1 0.00 0.00 0.00 89 1015.6
20260507125442 14 342 4.8 22.5 0.00 0.00 0.00 89 1015.7
20260507124448 14 20 6.4 22.5 0.00 0.00 0.00 88 1015.9
20260507123457 14 0 4.8 22.5 0.00 0.00 0.00 89 1015.5
20260507122431 14 49 8.0 22.5 0.00 0.00 0.00 89 1015.3
20260507121406 14 5 6.4 19.3 0.00 0.00 0.00 89 1015.4
20260507120428 14 355 8.0 19.3 0.00 0.00 0.00 88 1015.1
20260507115428 14 19 6.4 25.7 0.00 0.00 0.00 88 1014.7
20260507111003 15 9 6.4 22.5 0.00 0.00 0.00 88 1014.5
20260507104842 15 35 9.7 20.9 0.00 0.00 0.00 87 1014.3
20260507103857 15 328 9.7 20.9 0.00 0.00 0.00 87 1014.2
20260507102853 15 346 4.8 17.7 0.00 0.00 0.00 87 1014.2
20260507101847 15 13 6.4 19.3 0.00 0.00 0.00 87 1014.3
20260507100827 15 5 6.4 19.3 0.00 0.00 0.00 86 1013.8
20260507095836 15 350 6.4 19.3 0.00 0.00 0.00 86 1013.9
20260507094811 15 5 4.8 16.1 0.00 0.00 0.00 86 1013.8
20260507093827 15 17 4.8 12.9 0.00 0.00 0.00 86 1013.7
20260507092820 15 10 3.2 19.3 0.00 0.00 0.00 86 1013.7
20260507091819 15 5 6.4 19.3 0.00 0.00 0.00 86 1013.7
20260507090803 15 5 1.6 11.3 0.00 0.00 0.00 86 1013.7
20260507085753 15 355 1.6 11.3 0.00 0.00 0.00 86 1013.5
20260507084758 15 329 1.6 6.4 0.00 0.00 0.00 86 1013.4